Location: Stamford Bishop
(52.1667°N, 2.4667°W)
Time: 12:57:28
(UTC+00:00)

Daily predictions for brighter satellites

Satellite Brightness Start Highest point End
(mag) Time Altitude Azimuth Time Altitude Azimuth Time Altitude Azimuth
Cosmos 1833 Rocket 3.1 17:17:39 10° NNW 17:23:01 42° NE 17:28:20 10° ESE
Cosmos 1777 Rocket 4.4 17:22:11 10° SW 17:27:26 67° WNW 17:32:44 10° NNE
Envisat 4.1 17:22:55 10° S 17:27:51 50° W 17:32:49 10° NNW
Cosmos 2344 4.2 17:20:13 10° NW 17:28:53 70° NE 17:40:51 10° ESE
NOSS 2-1 (D) 4.1 17:26:56 10° S 17:29:48 27° ESE 17:32:48 10° ENE
H-2A R/B 2.4 17:25:52 10° NNE 17:30:09 48° E 17:34:19 10° S
H-2A R/B 3.0 17:26:05 10° ESE 17:30:13 25° ENE 17:34:26 10° N
USA 229 DEB 3.9 17:23:36 10° NW 17:30:50 79° NE 17:38:29 10° SE
USA 229 3.9 17:23:43 10° NW 17:30:56 79° NE 17:38:36 10° SE
Cosmos 1939 Rocket 3.1 17:28:12 10° SE 17:32:06 46° ENE 17:35:58 10° N
Helios 1A Rocket 4.4 17:29:59 10° E 17:32:44 17° ENE 17:35:28 10° NNE
CZ-3B R/B 1.4 17:30:41 10° WNW 17:32:51 84° SSW 17:37:51 10° ESE
Cosmos 44 3.7 17:29:10 10° SSW 17:33:51 51° ESE 17:38:52 10° NE
SeaSat 1 2.7 17:29:32 10° NNE 17:34:29 75° NW 17:39:25 10° SW
Cosmos 1602 Rocket 4.4 17:31:01 10° SSE 17:34:50 30° E 17:38:42 10° NNE
Cosmos 2112 Rocket 4.0 17:30:42 10° NNW 17:35:59 81° ENE 17:41:11 10° SSE
SJ 16-02 1.3 17:33:00 10° SSW 17:37:23 81° ESE 17:41:49 10° NNE
Feng Yun 1-1 Rocket 4.4 17:32:16 10° SE 17:37:36 53° ENE 17:43:07 10° N
FengYun 1-2 T 4.3 17:34:46 10° SSE 17:40:23 89° ENE 17:46:04 10° NNW
Cosmos 990 Rocket 4.3 17:36:02 10° S 17:40:59 46° ESE 17:45:55 10° NE
Aureole 3 Rocket 3.3 17:38:35 10° NNE 17:41:24 28° ENE 17:44:39 10° SE
YAOGAN 1 3.6 17:38:02 10° ESE 17:41:36 25° ENE 17:45:10 10° N
Cosmos 1844 Rocket 2.7 17:36:45 10° SSW 17:42:26 89° ESE 17:48:07 10° NNE
COSMOS 2406 3.3 17:36:45 10° NNW 17:42:31 61° NE 17:48:13 10° SE
Cosmos 1892 Rocket 3.9 17:38:18 10° SSW 17:42:37 68° WNW 17:46:58 10° N
Cosmos 2082 Rocket 2.8 17:37:27 10° NNW 17:42:44 36° NE 17:47:59 10° ESE
H-2A R/B 3.2 17:39:21 10° S 17:43:29 60° WSW 17:47:48 10° NNW
Cosmos 1818 3.7 17:38:22 10° SW 17:43:49 80° NW 17:49:20 10° NE
NOSS 3-1 (A) 4.0 17:39:12 10° NW 17:46:27 83° NE 17:54:59 10° SE
Cosmos 1844 3.7 17:40:47 10° SSW 17:46:29 80° ESE 17:52:17 10° NNE
X-37B 2.8 17:45:14 10° WSW 17:47:46 22° S 17:50:17 10° SE
Cosmos 1703 3.6 17:45:03 10° SSE 17:48:44 43° E 17:52:26 10° NNE
Cosmos 1812 Rocket 3.6 17:46:14 10° N 17:50:34 55° ENE 17:54:51 10° SSE
ISS -3.7 17:47:35 10° W 17:50:58 79° S 17:53:50 14° E
IRS-1C Rocket 4.3 17:46:03 10° SE 17:51:06 50° ENE 17:56:10 10° N
Meteor 2-1 Rocket 4.4 17:46:47 10° NNW 17:52:20 78° W 17:57:49 10° S
ATLAS 2AS CENTAUR R/B 3.9 17:46:50 10° W 17:54:06 38° NNW 18:00:55 11° NE
Cosmos 2227 Rocket 4.4 17:53:19 10° NW 17:55:56 13° NNW 17:58:34 10° NNE
ATLAS 5 CENTAUR R/B 3.2 17:52:39 10° WNW 17:56:29 28° NNW 18:00:50 10° NE
Okean O Rocket 2.2 17:52:28 10° S 17:56:52 64° WSW 18:01:16 10° NNW
Iridium 4 Rocket 3.8 17:53:38 10° N 17:58:53 45° ENE 18:03:41 10° SSE
ERS-2 3.4 17:58:38 13° NE 18:00:55 22° E 18:03:47 10° SSE
SKYMED 2 3.9 17:56:50 10° NNE 18:01:00 42° E 18:05:09 10° S
CZ-4 R/B 1.8 17:57:23 10° SE 18:01:07 38° ENE 18:04:47 10° N
CSL-04 Rocket 4.3 18:00:55 10° ESE 18:05:46 34° ENE 18:10:42 10° N
CZ-4C R/B 3.6 18:01:11 10° WNW 18:06:26 31° N 18:11:46 13° NE
Okean-O 2.9 18:04:25 10° SE 18:08:38 44° ENE 18:12:52 10° N
USA 234 3.5 18:05:52 14° ENE 18:11:25 61° N 18:17:50 10° W
Cosmos 1340 2.6 18:08:30 10° S 18:12:11 60° E 18:15:54 10° NNE
Cosmos 1346 Rocket 3.7 18:09:28 10° SSE 18:12:49 27° E 18:15:11 16° NE
Cosmos 2278 Rocket 2.8 18:07:44 10° S 18:12:52 36° ESE 18:17:11 14° NE
CZ-2C R/B 3.2 18:11:40 10° SSE 18:17:13 83° ENE 18:23:01 10° NNW
Cosmos 2297 Rocket 4.4 18:17:45 10° NNW 18:19:36 11° N 18:21:26 10° NNE
Cosmos 405 2.9 18:17:18 10° NNW 18:20:51 87° E 18:24:22 10° SSE
Cosmos 1455 4.1 18:17:50 10° NNW 18:21:19 33° W 18:24:47 10° SSW
COSMOS 2455 3.8 18:15:52 10° WSW 18:21:36 43° NW 18:27:21 10° NNE
NOSS 2-1 (E) 2.8 18:21:32 10° SW 18:24:49 78° SE 18:26:46 25° NE
TELKOM 3 4.0 18:26:02 10° W 18:28:04 33° S 18:28:34 29° SSE
Cosmos 1627 Rocket 4.4 18:22:10 10° S 18:28:22 73° E 18:34:41 10° NNE
Cosmos 1626 Rocket 4.0 18:24:30 10° SSW 18:28:53 65° WNW 18:33:21 10° N
Cosmos 1869 4.0 18:25:29 10° N 18:29:00 31° ENE 18:30:11 26° ESE
NOSS 2-2 (D) 4.5 18:24:47 10° NW 18:29:29 48° NE 18:33:29 21° E
ARGOS 3.3 18:25:37 10° SE 18:30:47 51° ENE 18:36:01 10° N
PSLV R/B 4.3 18:28:24 11° NNE 18:32:20 44° E 18:36:21 10° S
Meteor 2-19 Rocket 4.5 18:26:34 10° S 18:32:35 59° E 18:38:38 10° NNE
SAR-Lupe-1 4.5 18:34:05 32° ENE 18:35:04 39° E 18:38:27 10° S
Cosmos 1898 Rocket 3.6 18:30:32 10° SSW 18:35:47 81° WNW 18:41:03 10° NNE
CZ-4B R/B 1.4 18:32:44 10° N 18:36:03 75° WNW 18:39:17 10° SSW
Cosmos 372 Rocket 4.2 18:31:35 10° S 18:36:32 46° ESE 18:39:58 19° NE
Cosmos 2263 Rocket 4.3 18:33:03 10° WNW 18:37:00 19° NNW 18:40:58 10° NNE
CZ-2C R/B 3.5 18:33:45 16° NE 18:37:08 29° E 18:41:56 10° SSE
Cosmos 1092 Rocket 4.0 18:31:05 10° S 18:37:16 84° W 18:43:27 10° N
Cosmos 1328 3.9 18:35:32 10° SSW 18:39:30 75° W 18:43:29 10° N
Cosmos 494 Rocket 4.3 18:34:59 10° NNW 18:39:54 43° NE 18:42:29 25° ESE
CZ-2D R/B 4.2 18:37:52 10° S 18:41:37 50° W 18:45:21 10° NNW
MOS 1 Rocket 3.0 18:39:34 10° NNE 18:43:54 89° ESE 18:48:13 10° SSW
Cosmos 1048 Rocket 3.9 18:39:55 10° NNW 18:45:01 62° ENE 18:49:36 13° SE
Cosmos-2242 3.1 18:41:11 10° NNW 18:45:30 80° W 18:49:48 10° S
COSMO-SKYMED 1 2.8 18:44:49 10° N 18:49:09 70° WNW 18:53:28 10° SSW
Meteor 1-11 4.1 18:46:57 10° S 18:52:37 82° E 18:58:16 10° NNE
USA 290 3.9 18:50:55 10° NW 18:53:52 35° WSW 18:56:48 10° S
Cosmos 1758 Rocket 3.6 18:51:07 10° SSW 18:55:36 82° WNW 19:00:08 10° N
Cosmos 1937 Rocket 3.7 18:53:02 10° SSW 18:58:22 73° WNW 19:03:19 12° NNE
Cosmos 2098 Rocket 4.4 18:52:19 10° S 18:59:47 87° W 19:06:51 10° N
SL-08 RB Rocket 3.6 18:59:17 19° SSE 19:02:23 63° ENE 19:06:50 10° N
CSL-04 Debris 4.1 18:59:13 10° SSE 19:04:37 88° ENE 19:10:03 10° NNW
Cosmos 2221 3.4 19:00:51 10° N 19:03:42 33° NNE 19:03:42 33° NNE
H-2A R/B 4.2 19:02:16 10° N 19:05:53 25° WNW 19:09:25 10° WSW
Cosmos 389 Rocket 3.1 19:03:22 10° N 19:05:56 44° N 19:05:56 44° N
Cosmos 1833 Rocket 3.8 19:01:42 10° NW 19:07:01 44° WSW 19:12:18 10° S
Helios 1A Rocket 3.2 19:03:17 10° S 19:07:25 71° WSW 19:11:35 10° NNW
H-2A R/B 2.4 19:04:12 10° S 19:09:14 64° WSW 19:14:29 10° NNW
Cosmos 1809 Rocket 4.5 19:05:20 10° SSE 19:11:16 54° E 19:17:16 10° NNE
Cosmos 1689 Rocket 4.0 19:13:25 23° SSW 19:13:25 23° SSW 19:14:39 10° SSW
Cosmos 2298 Rocket 4.1 19:07:55 10° S 19:13:04 52° ESE 19:13:35 50° E
NOSS 2-1 (C) 4.0 19:10:57 10° WSW 19:14:08 40° NNW 19:14:40 37° N
Cosmos 44 4.4 19:10:33 10° WSW 19:15:16 42° NW 19:17:57 24° NNE
Cosmos 2266 Rocket 4.0 19:09:27 10° SSE 19:15:27 53° E 19:21:24 10° NNE
SJ 16-02 3.9 19:13:31 10° W 19:16:34 18° NW 19:19:38 10° N
YAOGAN 1 3.6 19:13:20 10° S 19:17:30 46° W 19:21:41 10° NNW
NOSS 2-2 (C) 4.2 19:12:36 10° NW 19:17:39 79° NE 19:20:07 40° ESE
NOSS 2-1 (D) 4.1 19:16:58 10° WSW 19:20:06 37° NNW 19:20:26 36° NNW
HJ-1C 4.1 19:20:23 37° SSW 19:21:22 52° W 19:24:40 10° NNW
X-37B 3.5 19:22:28 10° SW 19:23:41 12° SSW 19:23:54 12° SSW
In-Cosmos 22 Rocket 4.1 19:19:21 10° S 19:25:04 68° E 19:29:35 16° NNE
Cosmos 2082 Rocket 2.8 19:21:31 10° NW 19:27:07 55° WSW 19:32:38 10° S
Cosmos 1825 Rocket 4.2 19:23:11 10° SSW 19:27:30 54° WNW 19:31:53 10° N
ISS -2.6 19:24:23 10° W 19:26:49 43° W 19:26:49 43° W
NOSS 3-4 (A) 4.4 19:23:19 10° NW 19:29:17 36° NNE 19:30:38 34° NE
NOSS 3-4 (C) 4.4 19:23:25 10° NW 19:29:22 36° NNE 19:30:44 33° NE
Cosmos 1269 Rocket 4.3 19:24:29 10° NNW 19:29:03 49° NNE 19:29:03 49° NNE
ERS-2 3.5 19:33:12 26° NNW 19:34:35 37° WNW 19:37:57 10° SW
CZ-4 R/B 3.7 19:32:55 10° SSW 19:36:15 25° W 19:39:33 10° NW
MetOp-A 4.0 19:37:46 67° SE 19:38:26 79° ENE 19:43:49 10° NNW
Meteor 2-21 4.3 19:34:57 10° S 19:41:01 75° E 19:47:10 10° NNE
ATLAS 5 CENTAUR R/B 3.5 19:38:37 10° NW 19:42:29 24° N 19:42:29 24° N
Cosmos 2227 Rocket 4.4 19:40:25 10° NNW 19:42:44 12° NNE 19:42:53 12° NNE
Cosmos 2315 Rocket 3.8 19:38:24 10° N 19:44:40 80° ENE 19:46:33 48° SSE
Cosmos 883 Rocket 4.4 19:39:15 10° N 19:45:30 87° W 19:50:12 18° S
ATLAS 2AS CENTAUR R/B 3.6 19:39:51 10° NW 19:46:59 38° NNE 19:48:21 35° NE
Meteor 2-14 Rocket 4.2 19:42:56 10° S 19:49:01 81° E 19:55:10 10° NNE
Ariane Rocket 3.6 19:51:36 47° N 19:51:36 47° N 19:55:16 10° NNW
IRS-1A Rocket 4.2 19:51:16 78° ESE 19:51:33 81° ENE 19:57:26 10° NNW
USA 234 3.2 19:53:12 60° NE 19:54:06 67° NNE 20:00:36 10° WNW
CZ-4C R/B 3.4 19:50:36 10° NW 19:56:38 39° NNE 19:56:57 39° NNE
Cosmos 2278 Rocket 2.9 19:51:17 10° SW 19:56:49 51° NW 19:59:05 33° N
Cosmos 1655 Rocket 4.2 19:52:31 10° SSW 19:58:43 69° WNW 20:04:58 10° N
USA 281 3.8 20:04:50 42° NNE 20:04:50 42° NNE 20:09:54 10° NNW
Cosmos 44 Rocket 4.2 19:58:50 10° SW 20:02:05 42° SW 20:02:05 42° SW
Cosmos 2297 Rocket 4.3 20:03:09 10° NNW 20:05:07 14° N 20:05:07 14° N
CZ-2C R/B 3.2 20:15:10 31° N 20:17:45 58° WNW 20:23:14 10° SW
ATLAS 2AS CENTAUR R/B 4.1 21:31:34 10° NW 21:35:47 35° NW 21:35:47 35° NW
CZ-4C R/B 4.3 21:39:09 10° NW 21:42:09 30° NW 21:42:09 30° NW
